Tracking 21082 objects as of 6-Aug-2020
HD Live streaming from Space Station
objects crossing your sky now

FENGYUN 1C DEB

Track FENGYUN 1C DEB now!
10-day predictions


NORAD ID: 33748
Int'l Code: 1999-025DJM
Perigee: 796.0 km
Apogee: 859.4 km
Inclination: 98.8 °
Period: 101.3 minutes
Semi major axis: 7198 km
RCS: 0.0021 m2 (small)
Launch date: May 10, 1999
Source: People's Republic of China (PRC)
Launch site: Taiyaun Space Center, China (TSC)

Note: This is SATELLITE DEBRIS
aabbcc
Your satellite tracking list
Your tracking list is empty




NASA's NSSDC Master Catalog

Two Line Element Set (TLE):
1 33748U 99025DJM 20218.34918306 +.00000356 +00000-0 +18137-3 0  9994
2 33748 098.7645 265.2568 0044066 163.9755 196.2828 14.21414751635444
Source of the keplerian elements: AFSPC